Devils Lake, ND

2:10 PM CST on February 10, 2016 (GMT -0600)
Devils Lake Municipal

Weather History for KDVL - September, 2013

Change the Weather History Date:

Saturday, September 7, 2013

  Actual Average Record
Temperature  
Mean Temperature 68 °F -  
Max Temperature 77 °F 73 °F 100 °F (1976)
Min Temperature 60 °F 49 °F 36 °F (1965)
Cooling Degree Days 4    
Growing Degree Days 18 (Base 50)    
Moisture  
Dew Point 55 °F    
Average Humidity 62    
Maximum Humidity 82    
Minimum Humidity 44    
Precipitation  
Precipitation 0.32 in - - ()
Sea Level Pressure  
Sea Level Pressure 30.06 in    
Wind  
Wind Speed 13 mph (NE)    
Max Wind Speed 22 mph    
Max Gust Speed 28 mph    
Visibility 10 miles    
Events Thunderstorm    
Averages and records for this station are not official NWS values.
T = Trace of Precipitation, MM = Missing Value Source: NWS Daily Summary

Daily Weather History Graph

Daily Weather History Graph

Search for Another Location

Airport or City:

Trip Planner

Search our weather history database for the weather conditions in past years. The results will help you decide how hot, cold, wet, or windy it might be!

Date:

Astronomy

Sep. 07, 2013 Rise Set
Actual Time 7:02 AM CDT 8:03 PM CDT
Civil Twilight 6:30 AM CDT 8:35 PM CDT
Nautical Twilight 5:52 AM CDT 9:13 PM CDT
Astronomical Twilight 5:11 AM CDT 9:53 PM CDT
Moon 9:32 AM CDT (9/7) 8:46 PM CDT (9/7)
Length of Visible Light 14h 05m
Length of Day
13h 01m
Waxing Crescent, 5% of the Moon is Illuminated
Sep 7
Waxing Crescent
Sep 12
First Quarter
Sep 19
Full
Sep 26
Last Quarter
Oct 4
New

Hourly Weather History & Observations

Time (CDT) Temp. Dew Point Humidity Pressure Visibility Wind Dir Wind Speed Gust Speed Precip Events Conditions
12:15 AM 73.4 °F 64.4 °F 73% 29.92 in 5.0 mi NE 9.2 mph - N/A   Clear
12:35 AM 73.4 °F 64.4 °F 73% 29.92 in 9.0 mi NE 10.4 mph - N/A   Clear
12:55 AM 73.4 °F 64.4 °F 73% 29.93 in 8.0 mi NE 10.4 mph - N/A   Partly Cloudy
1:15 AM 73.4 °F 62.6 °F 69% 29.96 in 10.0 mi NNE 19.6 mph - N/A   Mostly Cloudy
1:35 AM 71.6 °F 57.2 °F 60% 29.97 in 10.0 mi NNE 19.6 mph 24.2 mph N/A   Mostly Cloudy
1:55 AM 71.6 °F 55.4 °F 57% 29.98 in 10.0 mi NNE 17.3 mph 24.2 mph N/A   Mostly Cloudy
2:15 AM 68.0 °F 55.4 °F 64% 29.99 in 10.0 mi NNE 19.6 mph 25.3 mph N/A   Partly Cloudy
2:35 AM 68.0 °F 53.6 °F 60% 29.98 in 10.0 mi NE 19.6 mph 27.6 mph N/A   Mostly Cloudy
2:55 AM 68.0 °F 53.6 °F 60% 29.98 in 10.0 mi NE 17.3 mph 24.2 mph N/A   Overcast
3:15 AM 66.2 °F 57.2 °F 73% 29.98 in 10.0 mi NE 18.4 mph - N/A   Overcast
3:35 AM 64.4 °F 57.2 °F 77% 29.98 in 10.0 mi NE 21.9 mph 27.6 mph N/A   Overcast
3:55 AM 64.4 °F 55.4 °F 73% 29.98 in 10.0 mi ENE 17.3 mph 27.6 mph N/A   Scattered Clouds
4:15 AM 64.4 °F 53.6 °F 68% 29.99 in 10.0 mi NE 12.7 mph - N/A   Scattered Clouds
4:35 AM 64.4 °F 53.6 °F 68% 30.00 in 10.0 mi NE 12.7 mph 17.3 mph N/A   Scattered Clouds
4:55 AM 64.4 °F 51.8 °F 64% 30.02 in 10.0 mi NNE 13.8 mph - N/A   Scattered Clouds
5:15 AM 64.4 °F 53.6 °F 68% 30.01 in 10.0 mi NE 10.4 mph - N/A Thunderstorm Mostly Cloudy
5:35 AM 64.4 °F 51.8 °F 64% 30.03 in 10.0 mi NE 13.8 mph 20.7 mph N/A Thunderstorm Mostly Cloudy
5:55 AM 60.8 °F 53.6 °F 77% 30.03 in 10.0 mi ENE 12.7 mph - N/A Thunderstorm Overcast
6:15 AM 60.8 °F 53.6 °F 77% 30.04 in 5.0 mi NNE 9.2 mph - 0.14 in Thunderstorm Thunderstorm
6:35 AM 60.8 °F 55.4 °F 82% 30.03 in 10.0 mi NNE 9.2 mph - 0.32 in Thunderstorm Thunderstorm
6:55 AM 62.6 °F 55.4 °F 77% 30.04 in 10.0 mi North 8.1 mph - 0.32 in   Overcast
7:15 AM 62.6 °F 55.4 °F 77% 30.04 in 10.0 mi NNE 8.1 mph - N/A   Overcast
7:35 AM 62.6 °F 55.4 °F 77% 30.04 in 10.0 mi NNE 8.1 mph - N/A   Mostly Cloudy
7:55 AM 62.6 °F 55.4 °F 77% 30.05 in 10.0 mi NNE 12.7 mph - N/A   Mostly Cloudy
8:15 AM 62.6 °F 55.4 °F 77% 30.06 in 10.0 mi NNE 12.7 mph - N/A   Partly Cloudy
8:35 AM 62.6 °F 53.6 °F 72% 30.05 in 10.0 mi NE 11.5 mph - N/A   Clear
8:55 AM 62.6 °F 55.4 °F 77% 30.06 in 10.0 mi NNE 12.7 mph - N/A   Clear
9:15 AM 64.4 °F 55.4 °F 73% 30.06 in 10.0 mi NNE 11.5 mph - N/A   Clear
9:35 AM 64.4 °F 55.4 °F 73% 30.07 in 10.0 mi NNE 11.5 mph - N/A   Clear
9:55 AM 66.2 °F 55.4 °F 68% 30.08 in 10.0 mi NE 13.8 mph 18.4 mph N/A   Clear
10:15 AM 66.2 °F 57.2 °F 73% 30.09 in 10.0 mi NE 13.8 mph 18.4 mph N/A   Clear
10:35 AM 68.0 °F 57.2 °F 68% 30.09 in 10.0 mi NE 12.7 mph - N/A   Clear
10:55 AM 69.8 °F 57.2 °F 64% 30.10 in 10.0 mi NE 13.8 mph - N/A   Clear
11:15 AM 69.8 °F 57.2 °F 64% 30.10 in 10.0 mi NE 18.4 mph - N/A   Clear
11:35 AM 71.6 °F 57.2 °F 60% 30.10 in 10.0 mi ENE 18.4 mph - N/A   Clear
11:55 AM 71.6 °F 57.2 °F 60% 30.10 in 10.0 mi NE 19.6 mph 24.2 mph N/A   Clear
12:15 PM 73.4 °F 57.2 °F 57% 30.09 in 10.0 mi ENE 20.7 mph - N/A   Clear
12:35 PM 75.2 °F 55.4 °F 50% 30.09 in 10.0 mi ENE 19.6 mph 26.5 mph N/A   Clear
12:55 PM 75.2 °F 55.4 °F 50% 30.10 in 10.0 mi ENE 19.6 mph 26.5 mph N/A   Clear
1:15 PM 75.2 °F 57.2 °F 53% 30.10 in 10.0 mi ENE 20.7 mph 24.2 mph N/A   Clear
1:35 PM 75.2 °F 55.4 °F 50% 30.10 in 10.0 mi ENE 17.3 mph - N/A   Clear
1:55 PM 77.0 °F 55.4 °F 47% 30.09 in 10.0 mi ENE 13.8 mph 23.0 mph N/A   Clear
2:15 PM 77.0 °F 55.4 °F 47% 30.09 in 10.0 mi ENE 18.4 mph 23.0 mph N/A   Clear
2:35 PM 75.2 °F 55.4 °F 50% 30.08 in 10.0 mi ENE 15.0 mph 20.7 mph N/A   Clear
2:55 PM 77.0 °F 55.4 °F 47% 30.08 in 10.0 mi ENE 17.3 mph 24.2 mph N/A   Clear
3:15 PM 77.0 °F 55.4 °F 47% 30.09 in 10.0 mi East 17.3 mph 24.2 mph N/A   Clear
3:35 PM 77.0 °F 53.6 °F 44% 30.09 in 10.0 mi NE 18.4 mph 21.9 mph N/A   Clear
3:55 PM 75.2 °F 53.6 °F 47% 30.08 in 10.0 mi ENE 16.1 mph 21.9 mph N/A   Clear
4:15 PM 75.2 °F 53.6 °F 47% 30.09 in 10.0 mi ENE 13.8 mph 20.7 mph N/A   Clear
4:35 PM 75.2 °F 53.6 °F 47% 30.09 in 10.0 mi NE 12.7 mph - N/A   Clear
4:55 PM 75.2 °F 53.6 °F 47% 30.10 in 10.0 mi ENE 11.5 mph - N/A   Clear
5:15 PM 75.2 °F 53.6 °F 47% 30.10 in 10.0 mi NE 12.7 mph - N/A   Clear
5:35 PM 73.4 °F 53.6 °F 50% 30.10 in 10.0 mi ENE 10.4 mph - N/A   Clear
5:55 PM 73.4 °F 55.4 °F 53% 30.11 in 10.0 mi NE 10.4 mph - N/A   Clear
6:15 PM 73.4 °F 55.4 °F 53% 30.10 in 10.0 mi ENE 9.2 mph - N/A   Clear
6:35 PM 73.4 °F 55.4 °F 53% 30.10 in 10.0 mi NE 9.2 mph - N/A   Clear
6:55 PM 71.6 °F 57.2 °F 60% 30.09 in 10.0 mi NE 10.4 mph - N/A   Clear
7:15 PM 71.6 °F 55.4 °F 57% 30.11 in 10.0 mi NE 6.9 mph - N/A   Clear
7:35 PM 71.6 °F 55.4 °F 57% 30.10 in 10.0 mi ENE 8.1 mph - N/A   Clear
7:55 PM 69.8 °F 55.4 °F 60% 30.10 in 10.0 mi ENE 8.1 mph - N/A   Clear
8:15 PM 69.8 °F 55.4 °F 60% 30.10 in 10.0 mi NE 10.4 mph - N/A   Clear
8:35 PM 69.8 °F 55.4 °F 60% 30.09 in 10.0 mi ENE 13.8 mph - N/A   Clear
8:55 PM 69.8 °F 53.6 °F 56% 30.09 in 10.0 mi ENE 12.7 mph 19.6 mph N/A   Clear
9:15 PM 68.0 °F 53.6 °F 60% 30.11 in 10.0 mi ENE 10.4 mph - N/A   Mostly Cloudy
9:35 PM 68.0 °F 53.6 °F 60% 30.10 in 10.0 mi ENE 10.4 mph - N/A   Mostly Cloudy
9:55 PM 66.2 °F 53.6 °F 64% 30.11 in 10.0 mi East 9.2 mph - N/A   Scattered Clouds
10:15 PM 66.2 °F 53.6 °F 64% 30.09 in 10.0 mi East 8.1 mph - N/A   Clear
10:35 PM 66.2 °F 53.6 °F 64% 30.10 in 10.0 mi ENE 9.2 mph - N/A   Clear
10:55 PM 66.2 °F 53.6 °F 64% 30.10 in 10.0 mi ENE 6.9 mph - N/A   Clear
11:15 PM 66.2 °F 53.6 °F 64% 30.09 in 10.0 mi East 11.5 mph - N/A   Mostly Cloudy
11:35 PM 66.2 °F 51.8 °F 60% 30.09 in 10.0 mi East 10.4 mph - N/A   Partly Cloudy
11:55 PM 66.2 °F 51.8 °F 60% 30.08 in 10.0 mi East 10.4 mph 17.3 mph N/A   Clear